www.pogodaiklimat.ru

Погода и климат >> Архив погоды >> Индия >> Veraval


ПОГОДА в Veraval

  • Прогноз погоды в Veraval
  • Монитор погоды в Veraval
  • Климат города

АРХИВ ПОГОДЫ в Veraval

Время (UTC), дата Ветер
(напр.,м/с)
 
Видим.   Явления Облачность Т
(С)
Тd
(С)
f
(%)
Тe
(С)
Тes
(С)
Комфортность P
(гПа)
Po
(гПа)
Тmin
(С)
Tmax
(С)
R
(мм)
R24
(мм)
S
(см)
00 16.01 штиль 0 4000 м ясно +21.6 +16.3 72 +25 +25 комфорт 1011.7 1012.0
03 16.01 В 1 10 км ясно +22.6 +8.1 39 +22 +23 комфорт 1013.5 1014.0 +21.3
06 16.01 В 1 10 км ясно +29.4 0.0 15 +27 +39 жарко 1014.7 1015.0
09 16.01 Ю 2 10 км ясно +30.4 0.0 14 +27 +38 жарко 1011.6 1012.0
12 16.01 З 1 10 км ясно +28.4 0.0 16 +26 +27 жарко 1010.8 1011.0 +30.5
15 16.01 штиль 0 4000 м ясно +25.0 +9.8 38 +32 +32 очень
душно
1011.8 1012.0
18 16.01 штиль 0 4000 м ясно +23.4 +19.7 80 +30 +30 очень
душно
1012.3 1012.0
21 16.01 С 1 4000 м ясно +23.0 +19.9 83 +30 +30 очень
душно
1011.7 1012.0
00 17.01 штиль 0 4000 м ясно +20.8 +16.9 78 +24 +24 комфорт 1011.1 1011.0
03 17.01 С 1 10 км ясно +20.2 +7.9 45 +21 +23 комфорт 1013.2 1013.0 +19.8
06 17.01 С 1 10 км ясно +26.2 0.0 18 +24 +37 комфорт 1014.8 1015.0
09 17.01 З 1 10 км ясно +27.2 0.0 17 +25 +37 комфорт 1012.0 1012.0
12 17.01 З 1 10 км ясно +26.0 0.0 18 +24 +25 комфорт 1011.4 1011.0 +30.0
15 17.01 С 2 4000 м ясно +23.4 +9.6 42 +31 +31 очень
душно
1013.0 1013.0
18 17.01 С 1 4000 м ясно +22.0 +18.8 82 +27 +27 душно 1013.7 1014.0
21 17.01 штиль 0 4000 м ясно +21.0 +17.8 82 +25 +25 комфорт 1013.1 1013.0
00 18.01 СВ 1 4000 м ясно +20.0 +13.8 67 +23 +23 комфорт 1012.9 1013.0
03 18.01 СВ 2 10 км ясно +20.0 0.0 26 +21 +22 комфорт 1014.3 1014.0 +19.0
06 18.01 С 1 10 км ясно +27.8 0.0 16 +25 +38 комфорт 1015.8 1016.0
09 18.01 З 2 10 км ясно +28.8 0.0 15 +26 +36 жарко 1013.3 1013.0
12 18.01 З 2 10 км ясно +27.0 +9.1 32 +25 +26 комфорт 1012.3 1012.0 +29.8
15 18.01 С 1 4000 м ясно +23.8 +17.7 69 +28 +28 душно 1013.5 1014.0
18 18.01 С 1 4000 м ясно +22.0 +16.4 71 +26 +26 душно 1014.5 1015.0
21 18.01 СВ 1 4000 м ясно +20.4 +14.2 68 +24 +24 комфорт 1014.1 1014.0
00 19.01 СВ 1 4000 м ясно +18.4 +11.1 62 +20 +20 1013.7 1014.0
03 19.01 штиль 0 10 км ясно +18.4 0.0 29 +18 +20 1015.3 1015.0 +17.0
06 19.01 штиль 0 10 км ясно +27.6 0.0 17 +25 +40 комфорт 1016.4 1016.0
09 19.01 З 2 10 км ясно +27.8 0.0 16 +25 +36 комфорт 1014.2 1014.0
12 19.01 З 2 10 км ясно +26.8 +9.4 33 +25 +25 комфорт 1013.4 1013.0 +28.3
15 19.01 С 1 4000 м ясно +23.6 +18.2 72 +28 +28 душно 1014.7 1015.0
18 19.01 штиль 0 4000 м ясно +20.6 +16.7 78 +24 +24 комфорт 1015.5 1016.0
21 19.01 С 1 4000 м ясно +19.0 +7.2 46 +21 +21 комфорт 1014.2 1014.0
00 20.01 СВ 1 4000 м ясно +18.2 +6.1 45 +19 +19 1013.2 1013.0
03 20.01 СВ 2 10 км ясно +20.0 0.0 26 +21 +22 комфорт 1014.8 1015.0 +18.0
06 20.01 СВ 2 10 км ясно +27.8 0.0 16 +25 +37 комфорт 1013.7 1014.0
09 20.01 З 2 10 км ясно +29.4 0.0 15 +27 +38 жарко 1012.6 1013.0
12 20.01 З 3 10 км ясно +26.4 0.0 18 +25 +25 комфорт 1011.8 1012.0 +31.4
15 20.01 СЗ 2 4000 м ясно +32.3 +7.4 21 +35 +35 очень
душно
1012.9 1013.0
18 20.01 С 1 4000 м ясно +20.8 +13.1 61 +24 +24 комфорт 1013.2 1013.0
21 20.01 СВ 2 4000 м ясно +19.0 +8.2 49 +20 +20 1012.2 1012.0
00 21.01 СВ 1 4000 м ясно +18.0 +5.2 43 +19 +19 1011.1 1011.0
03 21.01 штиль 0 10 км 3/0
[Ci fib]
+18.4 0.0 29 +18 +20 1013.2 1013.0 +17.4
06 21.01 З 1 10 км ясно +26.4 0.0 18 +25 +38 комфорт 1014.1 1014.0
09 21.01 З 2 10 км 3/0
[Ci fib]
+27.6 0.0 17 +25 +36 комфорт 1010.2 1010.0
12 21.01 З 2 10 км 3/0
[Ci fib]
+26.2 0.0 18 +24 +25 комфорт 1009.7 1010.0 +28.3
15 21.01 З 1 4000 м ясно +23.0 +7.1 36 +27 +27 душно 1011.7 1012.0
18 21.01 штиль 0 4000 м ясно +20.6 +13.3 63 +23 +23 комфорт 1012.4 1012.0
21 21.01 штиль 0 4000 м ясно +18.2 +10.4 60 +18 +18 1011.1 1011.0
00 22.01 С 1 4000 м ясно +17.2 +4.7 44 +18 +18 1010.4 1010.0
03 22.01 С 1 10 км ясно +17.0 0.0 32 +18 +20 1012.0 1012.0 +16.5
06 22.01 СЗ 2 10 км ясно +24.4 0.0 20 +23 +35 комфорт 1012.7 1013.0
09 22.01 З 2 10 км ясно +26.4 0.0 18 +25 +35 комфорт 1009.8 1010.0
12 22.01 З 2 10 км ясно +25.0 0.0 19 +23 +24 комфорт 1009.1 1009.0 +28.5
15 22.01 СЗ 2 4000 м ясно +21.8 +15.5 67 +25 +25 комфорт 1011.0 1011.0
18 22.01 СЗ 2 4000 м ясно +20.0 +10.0 53 +22 +22 комфорт 1011.7 1012.0
21 22.01 СЗ 2 4000 м ясно +19.2 +12.4 65 +21 +21 комфорт 1011.3 1011.0

 

Местоположение метеостанции Veraval (Gujarat, Индия): широта 20.90 долгота 70.37 высота над уровнем моря 8 м.

В архиве по умолчанию представлена погода в Veraval за последнюю неделю. Архивные данные за месяц целиком и за предыдущие месяцы, начиная с января 2011 года, Вы можете получить, выбрав интересующий диапазон дат из раскрывающегося списка и нажав кнопку "Ввод!".

Внимание! Время в таблицах - всемирное. Для получения местного времени необходимо прибавить поправку, которая в Veraval равна 5.5 ч.

Смотрите также архив погоды в соседних городах и на ближайших метеорологических станциях:

Погода в Diu (Daman and Diu, Индия) (61 км)
Погода в Porbandar (Gujarat, Индия) (111 км)
Погода в Amreli (Gujarat, Индия) (118 км)
Погода в Mahuva (Gujarat, Индия) (148 км)
Погода в Rajkot (Gujarat, Индия) (161 км)
Погода в Dwarka (Gujarat, Индия) (211 км)
Погода в Bhaunagar (Gujarat, Индия) (212 км)
Погода в Okha (Gujarat, Индия) (218 км)
Погода в New Kandla (Gujarat, Индия) (234 км)
Погода в Surendranagar (Gujarat, Индия) (240 км)

Пояснения к столбцам:

Ветер - указаны скорость ветра в м/с - средняя за 10 мин, порывы в срок и между сроками (в фигурных скобках) и направление, откуда дует ветер: С - северный, СВ - северо-восточный, В - восточный, ЮВ - юго-восточный, Ю - южный, ЮЗ - юго-западный, З - западный, СЗ - северо-западный.
Видимость - горизонтальная дальность видимости в метрах или километрах. При видимости от 1 до 10 км при отсутствии осадков обычно наблюдается дымка, при ухудшении видимости до 1 км и менее - туман. В сухую погоду видимость может ухудшаться дымом, пылью или мглою.
Явления - указаны атмосферные явления, наблюдавшиеся в срок или в последний час перед сроком; фигурными скобками обозначены явления, наблюдавшиеся между сроками (за 1-3 часа до срока); квадратными скобками обозначены град или гололедные отложения с указанием их диаметра в мм.
Облачность - указаны через наклонную черту общая и нижняя облачность в баллах и высота нижней границы облаков в метрах; квадратными скобками обозначены формы облаков: Ci - перистые, Cs - перисто-слоистые, Cc - перисто-кучевые, Ac - высококучевые, As - высокослоистые, Sc - слоисто-кучевые, Ns - слоисто-дождевые, Cu - кучевые, Cb - кучево-дождевые. Подробнее классификацию облаков см. в Атласе облаков (PDF).
T - Температура воздуха - температура, измеренная на высоте 2 м над землей.
Td - Температура точки росы - температура, при понижении до которой содержащийся в воздухе водяной пар достигнет насыщения.
f - Относительная влажность воздуха - влажноcть воздуха, измеренная на высоте 2 м над землей.
Te - Эффективная температура - температура, которую ощущает одетый по сезону человек в тени. Характеристика душности погоды. При расчете учитывается влияние влажности воздуха и скорости ветра на теплоощущения человека.
Tes - Эффективная температура на солнце - температура, которую ощущает человек, с поправкой на солнечный нагрев. Характеристика знойности погоды. Зависит от высоты солнца над горизонтом, облачности и скорости ветра. Ночью, в пасмурную погоду, а также при ветре 12 м/с и более поправка равна нулю.
P - Атмосферное давление - приведенное к уровню моря атмосферное давление.
Po - Атмосферное давление - измеренное на уровне метеостанции атмосферное давление.
Tmin - Минимальная температура - минимум температуры воздуха на высоте 2 м над землей.
Tmax - Максимальная температура - максимум температуры воздуха на высоте 2 м над землей.
R - Количество осадков - Количество выпавших осадков за период времени, мм. При наведении курсора мыши на число - период времени, за который выпало указанное количество осадков.
R24 - Количество осадков - Количество выпавших осадков за 24 часа, мм.
S - Снежный покров - Высота снежного покрова, см. При наведении курсора мыши на число - состояние снежного покрова и степень покрытия местности в баллах.